Location: *
(34.6903°N, 135.5184°E)
Time: 05:37:46
(UTC+00:00)

MSX - Pass Details

Date: 22 September 2019
Orbit: 894 x 907 km, 98.7° (Epoch: 20 October)

Event Time Altitude Azimuth Distance (km) Brightness Sun altitude
Rises 19:17:22 0° 9° (N) 3,523 7.2 -18.9°
Reaches altitude 10° 19:19:47 10° 7° (N) 2,577 6.5 -18.4°
Maximum altitude 19:25:28 67° 286° (WNW) 971 3.8 -17.3°
Drops below altitude 10° 19:31:07 10° 205° (SSW) 2,556 5.9 -16.1°
Enters shadow 19:32:28 - 203° (SSW) 3,082 6.3 -15.9°
